GPS BIIR-11 (PRN 19)

Last updated on Sat Apr 13 2024 01:03:04 GMT+0100 (British Summer Time)

1 28190U 04009A 24103.40681091 -.00000051 00000+0 00000+0 0 9997 2 28190 55.5097 307.6625 0095695 144.9395 36.9689 2.00560897146987
UTC large
Height (km)
Speed (km/s)
/
Latitude / Longitude
Inclination (degrees)
Orbital Period (minutes)
Azimuth
Elevation
Range (km)
Doppler Factor

Next 0 passes for location: London (51.5072 / 0.1276)

Sorry there are no passes over London.